START_TIME,STEP,MOV.,P11,t_acc.,P23,t_acc.,P27,t_acc.,A4,t_acc.
1979-07-04 09:00:23.910 ,0,0,1.,4.8,0.,4.8,0.,4.8,0.,4.8
1979-07-04 09:00:28.710 ,0,0,1.,4.8,0.,4.8,0.,4.8,0.,4.8
1979-07-04 09:00:33.510 ,0,0,0.,4.8,0.,4.8,0.,4.8,0.,4.8
1979-07-04 09:00:38.310 ,0,0,0.,4.8,0.,4.8,0.,4.8,0.,4.8
1979-07-04 09:00:43.110 ,0,0,0.,4.8,0.,4.8,0.,4.8,0.,4.8
1979-07-04 09:00:47.910 ,0,0,1.,4.8,0.,4.8,0.,4.8,0.,4.8
1979-07-04 09:00:52.710 ,0,0,0.,4.8,0.,4.8,0.,4.8,0.,4.8
1979-07-04 09:00:57.510 ,0,0,1.,4.8,0.,4.8,0.,4.8,0.,4.8
1979-07-04 09:01:02.310 ,0,0,1.,4.8,0.,4.8,0.,4.8,0.,4.8
1979-07-04 09:01:07.110 ,0,0,0.,4.8,0.,4.8,0.,4.8,0.,4.8
1979-07-04 09:01:11.910 ,0,0,0.,4.8,0.,4.8,0.,4.8,0.,4.8
1979-07-04 09:01:16.710 ,0,0,0.,4.8,0.,4.8,0.,4.8,0.,4.8
1979-07-04 09:01:21.510 ,0,0,0.,4.8,0.,4.8,0.,4.8,0.,4.8
1979-07-04 09:01:26.310 ,0,0,0.,4.8,0.,4.8,2.,4.8,0.,4.8
1979-07-04 09:01:31.110 ,0,0,0.,4.8,1.,4.8,0.,4.8,0.,4.8
1979-07-04 09:01:35.910 ,1,0,0.,4.8,0.,4.8,0.,4.8,0.,4.8
1979-07-04 09:01:40.710 ,1,0,1.,4.8,0.,4.8,0.,4.8,0.,4.8
1979-07-04 09:01:45.510 ,1,0,0.,4.8,0.,4.8,0.,4.8,0.,4.8
1979-07-04 09:01:50.310 ,1,0,0.,4.8,0.,4.8,0.,4.8,0.,4.8
1979-07-04 09:01:55.110 ,1,0,1.,4.8,0.,4.8,0.,4.8,0.,4.8
1979-07-04 09:01:59.910 ,1,0,1.,4.8,0.,4.8,0.,4.8,0.,4.8
1979-07-04 09:02:04.710 ,1,0,0.,4.8,0.,4.8,0.,4.8,0.,4.8
1979-07-04 09:02:09.510 ,1,0,0.,4.8,0.,4.8,0.,4.8,0.,4.8
1979-07-04 09:02:14.310 ,1,0,1.,4.8,1.,4.8,0.,4.8,0.,4.8
1979-07-04 09:02:19.110 ,1,0,1.,4.8,0.,4.8,0.,4.8,0.,4.8
1979-07-04 09:02:23.910 ,2,0,0.,4.8,0.,4.8,1.,4.8,0.,4.8
1979-07-04 09:02:28.710 ,2,0,0.,4.8,0.,4.8,0.,4.8,0.,4.8
1979-07-04 09:02:33.510 ,2,0,0.,4.8,0.,4.8,0.,4.8,0.,4.8
1979-07-04 09:02:38.310 ,2,0,0.,4.8,0.,4.8,0.,4.8,0.,4.8
1979-07-04 09:02:43.110 ,2,0,0.,4.8,0.,4.8,0.,4.8,0.,4.8
1979-07-04 09:02:47.910 ,2,0,0.,4.8,0.,4.8,1.,4.8,0.,4.8
1979-07-04 09:02:52.710 ,2,0,0.,4.8,0.,4.8,0.,4.8,0.,4.8
1979-07-04 09:02:57.510 ,2,0,0.,4.8,0.,4.8,0.,4.8,0.,4.8
1979-07-04 09:03:02.310 ,2,0,0.,4.8,0.,4.8,0.,4.8,0.,4.8
1979-07-04 09:03:07.110 ,2,0,0.,4.8,0.,4.8,1.,4.8,0.,4.8
1979-07-04 09:03:11.910 ,3,0,1.,4.8,0.,4.8,0.,4.8,0.,4.8
1979-07-04 09:03:16.710 ,3,0,1.,4.8,0.,4.8,0.,4.8,1.,4.8
1979-07-04 09:03:21.510 ,3,0,1.,4.8,0.,4.8,0.,4.8,0.,4.8
1979-07-04 09:03:26.310 ,3,0,0.,4.8,0.,4.8,0.,4.8,0.,4.8
1979-07-04 09:03:31.110 ,3,0,0.,4.8,0.,4.8,1.,4.8,0.,4.8
1979-07-04 09:03:35.910 ,3,0,0.,4.8,0.,4.8,0.,4.8,0.,4.8
1979-07-04 09:03:40.710 ,3,0,0.,4.8,0.,4.8,0.,4.8,0.,4.8
1979-07-04 09:03:45.510 ,3,0,1.,4.8,0.,4.8,0.,4.8,0.,4.8
1979-07-04 09:03:50.310 ,3,0,1.,4.8,0.,4.8,0.,4.8,0.,4.8
1979-07-04 09:03:55.110 ,3,0,1.,4.8,0.,4.8,0.,4.8,0.,4.8
1979-07-04 09:03:59.910 ,4,0,0.,4.8,0.,4.8,0.,4.8,0.,4.8
1979-07-04 09:04:04.710 ,4,0,0.,4.8,0.,4.8,0.,4.8,0.,4.8
1979-07-04 09:04:09.510 ,4,0,0.,4.8,0.,4.8,0.,4.8,0.,4.8
1979-07-04 09:04:14.310 ,4,0,0.,4.8,0.,4.8,0.,4.8,0.,4.8
1979-07-04 09:04:19.110 ,4,0,0.,4.8,0.,4.8,1.,4.8,1.,4.8
1979-07-04 09:04:23.910 ,4,0,2.,4.8,0.,4.8,0.,4.8,0.,4.8
1979-07-04 09:04:28.710 ,4,0,0.,4.8,0.,4.8,0.,4.8,0.,4.8
1979-07-04 09:04:33.510 ,4,0,0.,4.8,0.,4.8,0.,4.8,0.,4.8
1979-07-04 09:04:38.310 ,4,0,0.,4.8,1.,4.8,0.,4.8,0.,4.8
1979-07-04 09:04:43.110 ,4,0,0.,4.8,0.,4.8,0.,4.8,0.,4.8
1979-07-04 09:04:47.910 ,5,0,0.,4.8,0.,4.8,0.,4.8,0.,4.8
1979-07-04 09:04:52.710 ,5,0,0.,4.8,0.,4.8,0.,4.8,0.,4.8
1979-07-04 09:04:57.510 ,5,0,0.,4.8,0.,4.8,0.,4.8,0.,4.8
1979-07-04 09:05:02.310 ,5,0,0.,4.8,0.,4.8,0.,4.8,0.,4.8
1979-07-04 09:05:07.110 ,5,0,2.,4.8,0.,4.8,0.,4.8,0.,4.8
1979-07-04 09:05:11.910 ,5,0,0.,4.8,0.,4.8,0.,4.8,0.,4.8
1979-07-04 09:05:16.710 ,5,0,0.,4.8,0.,4.8,0.,4.8,0.,4.8
1979-07-04 09:05:21.510 ,5,0,0.,4.8,0.,4.8,0.,4.8,0.,4.8
1979-07-04 09:05:26.310 ,5,0,0.,4.8,0.,4.8,0.,4.8,0.,4.8
1979-07-04 09:05:31.110 ,5,0,0.,4.8,0.,4.8,0.,4.8,0.,4.8
1979-07-04 09:05:35.910 ,6,0,1.,4.8,0.,4.8,0.,4.8,0.,4.8
1979-07-04 09:05:40.710 ,6,0,0.,4.8,0.,4.8,0.,4.8,0.,4.8
1979-07-04 09:05:45.510 ,6,0,0.,4.8,0.,4.8,1.,4.8,0.,4.8
1979-07-04 09:05:50.310 ,6,0,1.,4.8,0.,4.8,0.,4.8,0.,4.8
1979-07-04 09:05:55.110 ,6,0,0.,4.8,0.,4.8,0.,4.8,0.,4.8
1979-07-04 09:05:59.910 ,6,0,0.,4.8,0.,4.8,0.,4.8,0.,4.8
1979-07-04 09:06:04.710 ,6,0,0.,4.8,0.,4.8,0.,4.8,0.,4.8
1979-07-04 09:06:09.510 ,6,0,0.,4.8,0.,4.8,0.,4.8,0.,4.8
1979-07-04 09:06:14.310 ,6,0,0.,4.8,0.,4.8,0.,4.8,0.,4.8
1979-07-04 09:06:19.110 ,6,0,0.,4.8,0.,4.8,0.,4.8,0.,4.8
1979-07-04 09:06:23.910 ,7,0,1.,4.8,0.,4.8,0.,4.8,0.,4.8
1979-07-04 09:06:28.710 ,7,0,0.,4.8,0.,4.8,0.,4.8,0.,4.8
1979-07-04 09:06:33.510 ,7,0,0.,4.8,0.,4.8,0.,4.8,0.,4.8
1979-07-04 09:06:38.310 ,7,0,1.,4.8,0.,4.8,0.,4.8,0.,4.8
1979-07-04 09:06:43.110 ,7,0,0.,4.8,0.,4.8,0.,4.8,0.,4.8
1979-07-04 09:06:47.910 ,7,0,0.,4.8,0.,4.8,0.,4.8,0.,4.8
1979-07-04 09:06:52.710 ,7,0,0.,4.8,0.,4.8,0.,4.8,0.,4.8
1979-07-04 09:06:57.510 ,7,0,1.,4.8,0.,4.8,0.,4.8,0.,4.8
1979-07-04 09:07:02.310 ,7,0,0.,4.8,0.,4.8,0.,4.8,0.,4.8
1979-07-04 09:07:07.110 ,7,0,1.,4.8,0.,4.8,0.,4.8,0.,4.8
1979-07-04 09:07:11.910 ,3,1,0.,4.8,0.,4.8,0.,4.8,0.,4.8
1979-07-04 09:07:16.710 ,3,1,1.,4.8,0.,4.8,0.,4.8,0.,4.8
1979-07-04 09:07:21.510 ,3,1,1.,4.8,0.,4.8,1.,4.8,0.,4.8
1979-07-04 09:07:26.310 ,3,1,0.,4.8,0.,4.8,1.,4.8,0.,4.8
1979-07-04 09:07:31.110 ,3,1,0.,4.8,0.,4.8,0.,4.8,0.,4.8
1979-07-04 09:07:35.910 ,0,1,0.,4.8,0.,4.8,0.,4.8,0.,4.8
1979-07-04 09:07:40.710 ,0,1,0.,4.8,0.,4.8,0.,4.8,0.,4.8
1979-07-04 09:07:45.510 ,0,1,0.,4.8,0.,4.8,0.,4.8,0.,4.8
1979-07-04 09:07:50.310 ,0,1,1.,4.8,0.,4.8,0.,4.8,0.,4.8
1979-07-04 09:07:55.110 ,0,1,1.,4.8,0.,4.8,0.,4.8,0.,4.8
1979-07-04 09:07:59.910 ,4,1,0.,4.8,0.,4.8,0.,4.8,0.,4.8
1979-07-04 09:08:04.710 ,4,1,1.,4.8,0.,4.8,0.,4.8,0.,4.8
1979-07-04 09:08:09.510 ,4,1,0.,4.8,1.,4.8,0.,4.8,0.,4.8
1979-07-04 09:08:14.310 ,4,1,0.,4.8,0.,4.8,0.,4.8,0.,4.8
1979-07-04 09:08:19.110 ,4,1,0.,4.8,0.,4.8,0.,4.8,0.,4.8
1979-07-04 09:08:23.910 ,7,1,0.,4.8,0.,4.8,0.,4.8,0.,4.8
1979-07-04 09:08:28.710 ,7,1,1.,4.8,0.,4.8,0.,4.8,0.,4.8
1979-07-04 09:08:33.510 ,7,1,1.,4.8,0.,4.8,0.,4.8,0.,4.8
1979-07-04 09:08:38.310 ,7,1,1.,4.8,0.,4.8,0.,4.8,0.,4.8
1979-07-04 09:08:43.110 ,7,1,0.,4.8,0.,4.8,0.,4.8,0.,4.8
1979-07-04 09:08:47.910 ,3,1,0.,4.8,0.,4.8,0.,4.8,0.,4.8
1979-07-04 09:08:52.710 ,3,1,0.,4.8,0.,4.8,0.,4.8,0.,4.8
1979-07-04 09:08:57.510 ,3,1,1.,4.8,0.,4.8,0.,4.8,0.,4.8
1979-07-04 09:09:02.310 ,3,1,1.,4.8,0.,4.8,0.,4.8,0.,4.8
1979-07-04 09:09:07.110 ,3,1,2.,4.8,0.,4.8,0.,4.8,0.,4.8
1979-07-04 09:09:11.910 ,0,1,0.,4.8,0.,4.8,0.,4.8,0.,4.8
1979-07-04 09:09:16.710 ,0,1,0.,4.8,0.,4.8,0.,4.8,0.,4.8
1979-07-04 09:09:21.510 ,0,1,1.,4.8,0.,4.8,0.,4.8,0.,4.8
1979-07-04 09:09:26.310 ,0,1,0.,4.8,1.,4.8,0.,4.8,0.,4.8
1979-07-04 09:09:31.110 ,0,1,0.,4.8,0.,4.8,0.,4.8,0.,4.8
1979-07-04 09:09:35.910 ,0,0,0.,4.8,0.,4.8,0.,4.8,0.,4.8
1979-07-04 09:09:40.710 ,0,0,0.,4.8,0.,4.8,1.,4.8,0.,4.8
1979-07-04 09:09:45.510 ,0,0,0.,4.8,1.,4.8,0.,4.8,1.,4.8
1979-07-04 09:09:50.310 ,0,0,1.,4.8,0.,4.8,0.,4.8,0.,4.8
1979-07-04 09:09:55.110 ,0,0,0.,4.8,0.,4.8,0.,4.8,0.,4.8
1979-07-04 09:09:59.910 ,7,1,1.,4.8,0.,4.8,0.,4.8,0.,4.8
1979-07-04 09:10:04.710 ,7,1,0.,4.8,0.,4.8,0.,4.8,0.,4.8
1979-07-04 09:10:09.510 ,7,1,0.,4.8,0.,4.8,0.,4.8,0.,4.8
1979-07-04 09:10:14.310 ,7,1,0.,4.8,0.,4.8,0.,4.8,0.,4.8
1979-07-04 09:10:19.110 ,7,1,1.,4.8,0.,4.8,0.,4.8,0.,4.8
1979-07-04 09:10:23.910 ,3,1,0.,4.8,0.,4.8,0.,4.8,0.,4.8
1979-07-04 09:10:28.710 ,3,1,0.,4.8,0.,4.8,0.,4.8,0.,4.8
1979-07-04 09:10:33.510 ,3,1,0.,4.8,0.,4.8,0.,4.8,0.,4.8
1979-07-04 09:10:38.310 ,3,1,0.,4.8,0.,4.8,0.,4.8,0.,4.8
1979-07-04 09:10:43.110 ,3,1,1.,4.8,0.,4.8,0.,4.8,0.,4.8
1979-07-04 09:10:47.910 ,0,1,0.,4.8,0.,4.8,0.,4.8,0.,4.8
1979-07-04 09:10:52.710 ,0,1,0.,4.8,0.,4.8,0.,4.8,1.,4.8
1979-07-04 09:10:57.510 ,0,1,1.,4.8,0.,4.8,0.,4.8,0.,4.8
1979-07-04 09:11:02.310 ,0,1,1.,4.8,0.,4.8,0.,4.8,0.,4.8
1979-07-04 09:11:07.110 ,0,1,0.,4.8,0.,4.8,1.,4.8,0.,4.8
1979-07-04 09:11:11.910 ,4,1,0.,4.8,0.,4.8,0.,4.8,0.,4.8
1979-07-04 09:11:16.710 ,4,1,0.,4.8,0.,4.8,0.,4.8,0.,4.8
1979-07-04 09:11:21.510 ,4,1,0.,4.8,0.,4.8,0.,4.8,0.,4.8
1979-07-04 09:11:26.310 ,4,1,0.,4.8,0.,4.8,0.,4.8,0.,4.8
1979-07-04 09:11:31.110 ,4,1,0.,4.8,0.,4.8,0.,4.8,0.,4.8
1979-07-04 09:11:35.910 ,7,1,0.,4.8,0.,4.8,0.,4.8,0.,4.8
1979-07-04 09:11:40.710 ,7,1,0.,4.8,0.,4.8,0.,4.8,0.,4.8
1979-07-04 09:11:45.510 ,7,1,1.,4.8,0.,4.8,0.,4.8,0.,4.8
1979-07-04 09:11:50.310 ,7,1,0.,4.8,0.,4.8,0.,4.8,0.,4.8
1979-07-04 09:11:55.110 ,7,1,0.,4.8,1.,4.8,0.,4.8,0.,4.8
1979-07-04 09:11:59.910 ,3,1,0.,4.8,0.,4.8,0.,4.8,0.,4.8
1979-07-04 09:12:04.710 ,3,1,0.,4.8,0.,4.8,0.,4.8,0.,4.8
1979-07-04 09:12:09.510 ,3,1,0.,4.8,0.,4.8,0.,4.8,0.,4.8
1979-07-04 09:12:14.310 ,3,1,0.,4.8,0.,4.8,0.,4.8,0.,4.8
1979-07-04 09:12:19.110 ,3,1,0.,4.8,0.,4.8,1.,4.8,1.,4.8
1979-07-04 09:12:23.910 ,0,1,0.,4.8,0.,4.8,0.,4.8,0.,4.8
1979-07-04 09:12:28.710 ,0,1,0.,4.8,0.,4.8,0.,4.8,0.,4.8
1979-07-04 09:12:33.510 ,0,1,0.,4.8,0.,4.8,1.,4.8,0.,4.8
1979-07-04 09:12:38.310 ,0,1,1.,4.8,0.,4.8,0.,4.8,0.,4.8
1979-07-04 09:12:43.110 ,0,1,0.,4.8,0.,4.8,0.,4.8,0.,4.8
1979-07-04 09:12:47.910 ,4,1,1.,4.8,0.,4.8,0.,4.8,0.,4.8
1979-07-04 09:12:52.710 ,4,1,0.,4.8,0.,4.8,1.,4.8,0.,4.8
1979-07-04 09:12:57.510 ,4,1,0.,4.8,0.,4.8,0.,4.8,0.,4.8
1979-07-04 09:13:02.310 ,4,1,0.,4.8,0.,4.8,0.,4.8,0.,4.8
1979-07-04 09:13:07.110 ,4,1,0.,4.8,0.,4.8,0.,4.8,0.,4.8
1979-07-04 09:13:11.910 ,7,1,0.,4.8,0.,4.8,0.,4.8,0.,4.8
1979-07-04 09:13:16.710 ,7,1,0.,4.8,0.,4.8,0.,4.8,0.,4.8
1979-07-04 09:13:21.510 ,7,1,1.,4.8,0.,4.8,0.,4.8,0.,4.8
1979-07-04 09:13:26.310 ,7,1,0.,4.8,0.,4.8,0.,4.8,0.,4.8
1979-07-04 09:13:31.110 ,7,1,1.,4.8,0.,4.8,0.,4.8,0.,4.8
1979-07-04 09:13:35.910 ,3,1,0.,4.8,0.,4.8,0.,4.8,0.,4.8
1979-07-04 09:13:40.710 ,3,1,0.,4.8,0.,4.8,0.,4.8,0.,4.8
1979-07-04 09:13:45.510 ,3,1,0.,4.8,0.,4.8,0.,4.8,0.,4.8
1979-07-04 09:13:50.310 ,3,1,0.,4.8,0.,4.8,0.,4.8,0.,4.8
1979-07-04 09:13:55.110 ,3,1,0.,4.8,0.,4.8,0.,4.8,0.,4.8
1979-07-04 09:13:59.910 ,0,1,1.,4.8,0.,4.8,0.,4.8,0.,4.8
1979-07-04 09:14:04.710 ,0,1,0.,4.8,0.,4.8,0.,4.8,0.,4.8
1979-07-04 09:14:09.510 ,0,1,1.,4.8,0.,4.8,0.,4.8,0.,4.8
1979-07-04 09:14:14.310 ,0,1,0.,4.8,0.,4.8,1.,4.8,0.,4.8
1979-07-04 09:14:19.110 ,0,1,1.,4.8,0.,4.8,1.,4.8,0.,4.8
1979-07-04 09:14:23.910 ,4,1,0.,4.8,0.,4.8,0.,4.8,0.,4.8
1979-07-04 09:14:28.710 ,4,1,0.,4.8,0.,4.8,0.,4.8,0.,4.8
1979-07-04 09:14:33.510 ,4,1,0.,4.8,0.,4.8,0.,4.8,0.,4.8
1979-07-04 09:14:38.310 ,4,1,0.,4.8,0.,4.8,1.,4.8,0.,4.8
1979-07-04 09:14:43.110 ,4,1,0.,4.8,0.,4.8,0.,4.8,0.,4.8
1979-07-04 09:14:47.910 ,7,1,0.,4.8,0.,4.8,0.,4.8,0.,4.8
1979-07-04 09:14:52.710 ,7,1,0.,4.8,0.,4.8,1.,4.8,0.,4.8
1979-07-04 09:14:57.510 ,7,1,0.,4.8,0.,4.8,0.,4.8,0.,4.8
1979-07-04 09:15:02.310 ,7,1,0.,4.8,0.,4.8,0.,4.8,0.,4.8
1979-07-04 09:15:07.110 ,7,1,1.,4.8,0.,4.8,0.,4.8,0.,4.8
1979-07-04 09:15:11.910 ,3,1,1.,4.8,0.,4.8,0.,4.8,0.,4.8
1979-07-04 09:15:16.710 ,3,1,0.,4.8,0.,4.8,0.,4.8,0.,4.8
1979-07-04 09:15:21.510 ,3,1,0.,4.8,0.,4.8,0.,4.8,0.,4.8
1979-07-04 09:15:26.310 ,3,1,0.,4.8,1.,4.8,1.,4.8,0.,4.8
1979-07-04 09:15:31.110 ,3,1,0.,4.8,0.,4.8,0.,4.8,0.,4.8
1979-07-04 09:15:35.910 ,0,1,0.,4.8,0.,4.8,0.,4.8,0.,4.8
1979-07-04 09:15:40.710 ,0,1,1.,4.8,0.,4.8,1.,4.8,0.,4.8
1979-07-04 09:15:45.510 ,0,1,0.,4.8,0.,4.8,0.,4.8,0.,4.8
1979-07-04 09:15:50.310 ,0,1,0.,4.8,0.,4.8,0.,4.8,0.,4.8
1979-07-04 09:15:55.110 ,0,1,1.,4.8,0.,4.8,0.,4.8,0.,4.8
1979-07-04 09:15:59.910 ,4,1,0.,4.8,0.,4.8,0.,4.8,0.,4.8
1979-07-04 09:16:04.710 ,4,1,0.,4.8,0.,4.8,0.,4.8,0.,4.8
1979-07-04 09:16:09.510 ,4,1,1.,4.8,0.,4.8,0.,4.8,0.,4.8
1979-07-04 09:16:14.310 ,4,1,0.,4.8,0.,4.8,0.,4.8,0.,4.8
1979-07-04 09:16:19.110 ,4,1,1.,4.8,0.,4.8,0.,4.8,0.,4.8
1979-07-04 09:16:23.910 ,7,1,0.,4.8,0.,4.8,0.,4.8,0.,4.8
1979-07-04 09:16:28.710 ,7,1,0.,4.8,0.,4.8,0.,4.8,0.,4.8
1979-07-04 09:16:33.510 ,7,1,0.,4.8,0.,4.8,0.,4.8,0.,4.8
1979-07-04 09:16:38.310 ,7,1,0.,4.8,0.,4.8,0.,4.8,0.,4.8
1979-07-04 09:16:43.110 ,7,1,2.,4.8,0.,4.8,0.,4.8,0.,4.8
1979-07-04 09:16:47.910 ,3,1,0.,4.8,0.,4.8,0.,4.8,0.,4.8
1979-07-04 09:16:52.710 ,3,1,0.,4.8,0.,4.8,0.,4.8,0.,4.8
1979-07-04 09:16:57.510 ,3,1,0.,4.8,1.,4.8,0.,4.8,0.,4.8
1979-07-04 09:17:02.310 ,3,1,0.,4.8,0.,4.8,0.,4.8,0.,4.8
1979-07-04 09:17:07.110 ,3,1,1.,4.8,0.,4.8,0.,4.8,0.,4.8
1979-07-04 09:17:11.910 ,0,1,1.,4.8,0.,4.8,0.,4.8,0.,4.8
1979-07-04 09:17:16.710 ,0,1,1.,4.8,0.,4.8,0.,4.8,0.,4.8
1979-07-04 09:17:21.510 ,0,1,0.,4.8,0.,4.8,0.,4.8,0.,4.8
1979-07-04 09:17:26.310 ,0,1,1.,4.8,0.,4.8,0.,4.8,0.,4.8
1979-07-04 09:17:31.110 ,0,1,0.,4.8,0.,4.8,1.,4.8,0.,4.8
1979-07-04 09:17:35.910 ,0,0,0.,4.8,0.,4.8,0.,4.8,0.,4.8
1979-07-04 09:17:40.710 ,0,0,1.,4.8,0.,4.8,0.,4.8,0.,4.8
1979-07-04 09:17:45.510 ,0,0,0.,4.8,0.,4.8,0.,4.8,0.,4.8
1979-07-04 09:17:50.310 ,0,0,0.,4.8,0.,4.8,1.,4.8,0.,4.8
1979-07-04 09:17:55.110 ,0,0,0.,4.8,0.,4.8,0.,4.8,0.,4.8
1979-07-04 09:17:59.910 ,0,0,0.,4.8,0.,4.8,0.,4.8,0.,4.8
1979-07-04 09:18:04.710 ,0,0,0.,4.8,0.,4.8,0.,4.8,0.,4.8
1979-07-04 09:18:09.510 ,0,0,0.,4.8,0.,4.8,1.,4.8,0.,4.8
1979-07-04 09:18:14.310 ,0,0,1.,4.8,0.,4.8,0.,4.8,0.,4.8
1979-07-04 09:18:19.110 ,0,0,0.,4.8,0.,4.8,0.,4.8,0.,4.8
1979-07-04 09:18:23.910 ,5,0,0.,4.8,0.,4.8,0.,4.8,0.,4.8
1979-07-04 09:18:28.710 ,5,0,0.,4.8,0.,4.8,0.,4.8,0.,4.8
1979-07-04 09:18:33.510 ,5,0,0.,4.8,0.,4.8,0.,4.8,1.,4.8
1979-07-04 09:18:38.310 ,5,0,1.,4.8,0.,4.8,1.,4.8,0.,4.8
1979-07-04 09:18:43.110 ,5,0,0.,4.8,0.,4.8,0.,4.8,0.,4.8
1979-07-04 09:18:47.910 ,5,0,0.,4.8,0.,4.8,0.,4.8,0.,4.8
1979-07-04 09:18:52.710 ,5,0,1.,4.8,0.,4.8,0.,4.8,0.,4.8
1979-07-04 09:18:57.510 ,5,0,0.,4.8,0.,4.8,0.,4.8,0.,4.8
1979-07-04 09:19:02.310 ,5,0,0.,4.8,0.,4.8,0.,4.8,0.,4.8
1979-07-04 09:19:07.110 ,5,0,0.,4.8,0.,4.8,0.,4.8,0.,4.8
1979-07-04 09:19:11.910 ,4,0,0.,4.8,0.,4.8,0.,4.8,0.,4.8
1979-07-04 09:19:16.710 ,4,0,0.,4.8,0.,4.8,0.,4.8,0.,4.8
1979-07-04 09:19:21.510 ,4,0,2.,4.8,0.,4.8,0.,4.8,0.,4.8
1979-07-04 09:19:26.310 ,4,0,2.,4.8,0.,4.8,0.,4.8,0.,4.8
1979-07-04 09:19:31.110 ,4,0,0.,4.8,0.,4.8,0.,4.8,0.,4.8
1979-07-04 09:19:35.910 ,4,0,1.,4.8,0.,4.8,0.,4.8,0.,4.8
1979-07-04 09:19:40.710 ,4,0,1.,4.8,0.,4.8,0.,4.8,0.,4.8
1979-07-04 09:19:45.510 ,4,0,0.,4.8,0.,4.8,0.,4.8,0.,4.8
1979-07-04 09:19:50.310 ,4,0,0.,4.8,0.,4.8,0.,4.8,0.,4.8
1979-07-04 09:19:55.110 ,4,0,0.,4.8,0.,4.8,0.,4.8,0.,4.8
1979-07-04 09:19:59.910 ,3,0,0.,4.8,0.,4.8,0.,4.8,0.,4.8
1979-07-04 09:20:04.710 ,3,0,0.,4.8,0.,4.8,1.,4.8,0.,4.8
1979-07-04 09:20:09.510 ,3,0,0.,4.8,0.,4.8,0.,4.8,0.,4.8
1979-07-04 09:20:14.310 ,3,0,0.,4.8,0.,4.8,0.,4.8,0.,4.8
1979-07-04 09:20:19.110 ,3,0,0.,4.8,0.,4.8,0.,4.8,0.,4.8
1979-07-04 09:20:23.910 ,3,0,0.,4.8,0.,4.8,0.,4.8,0.,4.8
1979-07-04 09:20:28.710 ,3,0,0.,4.8,0.,4.8,0.,4.8,0.,4.8
1979-07-04 09:20:33.510 ,3,0,0.,4.8,0.,4.8,1.,4.8,0.,4.8
1979-07-04 09:20:38.310 ,3,0,2.,4.8,0.,4.8,1.,4.8,0.,4.8
1979-07-04 09:20:43.110 ,3,0,0.,4.8,0.,4.8,0.,4.8,0.,4.8
1979-07-04 09:20:47.910 ,2,0,0.,4.8,0.,4.8,0.,4.8,0.,4.8
1979-07-04 09:20:52.710 ,2,0,0.,4.8,0.,4.8,0.,4.8,0.,4.8
1979-07-04 09:20:57.510 ,2,0,0.,4.8,0.,4.8,1.,4.8,0.,4.8
1979-07-04 09:21:02.310 ,2,0,0.,4.8,0.,4.8,0.,4.8,0.,4.8
1979-07-04 09:21:07.110 ,2,0,2.,4.8,0.,4.8,0.,4.8,1.,4.8
1979-07-04 09:21:11.910 ,2,0,0.,4.8,0.,4.8,0.,4.8,0.,4.8
1979-07-04 09:21:16.710 ,2,0,0.,4.8,0.,4.8,0.,4.8,0.,4.8
1979-07-04 09:21:21.510 ,2,0,0.,4.8,0.,4.8,0.,4.8,0.,4.8
1979-07-04 09:21:26.310 ,2,0,0.,4.8,0.,4.8,0.,4.8,0.,4.8
1979-07-04 09:21:31.110 ,2,0,1.,4.8,0.,4.8,0.,4.8,0.,4.8
1979-07-04 09:21:35.910 ,1,0,0.,4.8,0.,4.8,0.,4.8,0.,4.8
1979-07-04 09:21:40.710 ,1,0,0.,4.8,0.,4.8,0.,4.8,0.,4.8
1979-07-04 09:21:45.510 ,1,0,0.,4.8,0.,4.8,0.,4.8,0.,4.8
1979-07-04 09:21:50.310 ,1,0,0.,4.8,0.,4.8,0.,4.8,0.,4.8
1979-07-04 09:21:55.110 ,1,0,1.,4.8,0.,4.8,0.,4.8,0.,4.8
1979-07-04 09:21:59.910 ,1,0,0.,4.8,0.,4.8,0.,4.8,0.,4.8
1979-07-04 09:22:04.710 ,1,0,0.,4.8,0.,4.8,1.,4.8,0.,4.8
1979-07-04 09:22:09.510 ,1,0,0.,4.8,0.,4.8,0.,4.8,0.,4.8
1979-07-04 09:22:14.310 ,1,0,0.,4.8,0.,4.8,0.,4.8,0.,4.8
1979-07-04 09:22:19.110 ,1,0,0.,4.8,0.,4.8,0.,4.8,0.,4.8
1979-07-04 09:22:23.910 ,0,0,0.,4.8,0.,4.8,0.,4.8,0.,4.8
1979-07-04 09:22:28.710 ,0,0,0.,4.8,2.,4.8,0.,4.8,0.,4.8
1979-07-04 09:22:33.510 ,0,0,0.,4.8,0.,4.8,0.,4.8,0.,4.8
1979-07-04 09:22:38.310 ,0,0,0.,4.8,0.,4.8,0.,4.8,0.,4.8
1979-07-04 09:22:43.110 ,0,0,0.,4.8,0.,4.8,0.,4.8,0.,4.8
1979-07-04 09:22:47.910 ,0,0,0.,4.8,0.,4.8,0.,4.8,0.,4.8
1979-07-04 09:22:52.710 ,0,0,0.,4.8,0.,4.8,0.,4.8,0.,4.8
1979-07-04 09:22:57.510 ,0,0,1.,4.8,0.,4.8,0.,4.8,1.,4.8
1979-07-04 09:23:02.310 ,0,0,2.,4.8,0.,4.8,0.,4.8,0.,4.8
1979-07-04 09:23:07.110 ,0,0,0.,4.8,0.,4.8,1.,4.8,0.,4.8
1979-07-04 09:23:11.910 ,0,0,0.,4.8,0.,4.8,0.,4.8,0.,4.8
1979-07-04 09:23:16.710 ,0,0,0.,4.8,0.,4.8,0.,4.8,0.,4.8
1979-07-04 09:23:21.510 ,0,0,0.,4.8,0.,4.8,0.,4.8,0.,4.8
1979-07-04 09:23:26.310 ,0,0,0.,4.8,0.,4.8,0.,4.8,0.,4.8
1979-07-04 09:23:31.110 ,0,0,0.,4.8,0.,4.8,0.,4.8,0.,4.8
1979-07-04 09:23:35.910 ,0,0,2.,4.8,1.,4.8,0.,4.8,0.,4.8
1979-07-04 09:23:40.710 ,0,0,0.,4.8,0.,4.8,0.,4.8,0.,4.8
1979-07-04 09:23:45.510 ,0,0,1.,4.8,0.,4.8,0.,4.8,0.,4.8
1979-07-04 09:23:50.310 ,0,0,0.,4.8,0.,4.8,0.,4.8,0.,4.8
1979-07-04 09:23:55.110 ,0,0,0.,4.8,0.,4.8,0.,4.8,0.,4.8
1979-07-04 09:23:59.910 ,1,0,2.,4.8,0.,4.8,1.,4.8,0.,4.8
1979-07-04 09:24:04.710 ,1,0,0.,4.8,0.,4.8,1.,4.8,0.,4.8
1979-07-04 09:24:09.510 ,1,0,2.,4.8,0.,4.8,0.,4.8,0.,4.8
1979-07-04 09:24:14.310 ,1,0,1.,4.8,0.,4.8,0.,4.8,0.,4.8
1979-07-04 09:24:19.110 ,1,0,0.,4.8,0.,4.8,0.,4.8,0.,4.8
1979-07-04 09:24:23.910 ,1,0,0.,4.8,0.,4.8,0.,4.8,0.,4.8
1979-07-04 09:24:28.710 ,1,0,1.,4.8,0.,4.8,1.,4.8,0.,4.8
1979-07-04 09:24:33.510 ,1,0,0.,4.8,0.,4.8,0.,4.8,0.,4.8
1979-07-04 09:24:38.310 ,1,0,0.,4.8,0.,4.8,1.,4.8,0.,4.8
1979-07-04 09:24:43.110 ,1,0,0.,4.8,0.,4.8,0.,4.8,0.,4.8
1979-07-04 09:24:47.910 ,2,0,0.,4.8,0.,4.8,0.,4.8,0.,4.8
1979-07-04 09:24:52.710 ,2,0,0.,4.8,0.,4.8,0.,4.8,0.,4.8
1979-07-04 09:24:57.510 ,2,0,0.,4.8,0.,4.8,0.,4.8,0.,4.8
1979-07-04 09:25:02.310 ,2,0,0.,4.8,0.,4.8,0.,4.8,0.,4.8
1979-07-04 09:25:07.110 ,2,0,0.,4.8,0.,4.8,0.,4.8,0.,4.8
1979-07-04 09:25:11.910 ,2,0,2.,4.8,0.,4.8,0.,4.8,0.,4.8
1979-07-04 09:25:16.710 ,2,0,3.,4.8,0.,4.8,0.,4.8,0.,4.8
1979-07-04 09:25:21.510 ,2,0,1.,4.8,0.,4.8,0.,4.8,0.,4.8
1979-07-04 09:25:26.310 ,2,0,0.,4.8,0.,4.8,0.,4.8,0.,4.8
1979-07-04 09:25:31.110 ,2,0,0.,4.8,0.,4.8,0.,4.8,0.,4.8
1979-07-04 09:25:35.910 ,3,0,0.,4.8,0.,4.8,0.,4.8,0.,4.8
1979-07-04 09:25:40.710 ,3,0,0.,4.8,0.,4.8,0.,4.8,0.,4.8
1979-07-04 09:25:45.510 ,3,0,0.,4.8,0.,4.8,0.,4.8,0.,4.8
1979-07-04 09:25:50.310 ,3,0,0.,4.8,0.,4.8,0.,4.8,0.,4.8
1979-07-04 09:25:55.110 ,3,0,0.,4.8,1.,4.8,0.,4.8,0.,4.8
1979-07-04 09:25:59.910 ,3,0,0.,4.8,0.,4.8,0.,4.8,0.,4.8
1979-07-04 09:26:04.710 ,3,0,0.,4.8,0.,4.8,0.,4.8,0.,4.8
1979-07-04 09:26:09.510 ,3,0,0.,4.8,0.,4.8,0.,4.8,0.,4.8
1979-07-04 09:26:14.310 ,3,0,0.,4.8,0.,4.8,0.,4.8,0.,4.8
1979-07-04 09:26:19.110 ,3,0,0.,4.8,0.,4.8,0.,4.8,0.,4.8
1979-07-04 09:26:23.910 ,4,0,0.,4.8,0.,4.8,0.,4.8,0.,4.8
1979-07-04 09:26:28.710 ,4,0,1.,4.8,0.,4.8,0.,4.8,0.,4.8
1979-07-04 09:26:33.510 ,4,0,0.,4.8,0.,4.8,0.,4.8,0.,4.8
1979-07-04 09:26:38.310 ,4,0,0.,4.8,0.,4.8,0.,4.8,0.,4.8
1979-07-04 09:26:43.110 ,4,0,1.,4.8,0.,4.8,0.,4.8,0.,4.8
1979-07-04 09:26:47.910 ,4,0,0.,4.8,0.,4.8,0.,4.8,0.,4.8
1979-07-04 09:26:52.710 ,4,0,0.,4.8,0.,4.8,0.,4.8,0.,4.8
1979-07-04 09:26:57.510 ,4,0,0.,4.8,0.,4.8,0.,4.8,0.,4.8
1979-07-04 09:27:02.310 ,4,0,0.,4.8,0.,4.8,0.,4.8,0.,4.8
1979-07-04 09:27:07.110 ,4,0,0.,4.8,0.,4.8,0.,4.8,0.,4.8
1979-07-04 09:27:11.910 ,5,0,0.,4.8,0.,4.8,0.,4.8,0.,4.8
1979-07-04 09:27:16.710 ,5,0,1.,4.8,0.,4.8,0.,4.8,0.,4.8
1979-07-04 09:27:21.510 ,5,0,0.,4.8,0.,4.8,0.,4.8,0.,4.8
1979-07-04 09:27:26.310 ,5,0,1.,4.8,0.,4.8,0.,4.8,0.,4.8
1979-07-04 09:27:31.110 ,5,0,0.,4.8,0.,4.8,0.,4.8,0.,4.8
1979-07-04 09:27:35.910 ,5,0,1.,4.8,0.,4.8,0.,4.8,0.,4.8
1979-07-04 09:27:40.710 ,5,0,1.,4.8,0.,4.8,0.,4.8,0.,4.8
1979-07-04 09:27:45.510 ,5,0,0.,4.8,0.,4.8,1.,4.8,0.,4.8
1979-07-04 09:27:50.310 ,5,0,1.,4.8,0.,4.8,0.,4.8,0.,4.8
1979-07-04 09:27:55.110 ,5,0,0.,4.8,0.,4.8,0.,4.8,0.,4.8
1979-07-04 09:27:59.910 ,6,0,0.,4.8,0.,4.8,0.,4.8,0.,4.8
1979-07-04 09:28:04.710 ,6,0,1.,4.8,0.,4.8,1.,4.8,0.,4.8
1979-07-04 09:28:09.510 ,6,0,0.,4.8,0.,4.8,0.,4.8,0.,4.8
1979-07-04 09:28:14.310 ,6,0,0.,4.8,0.,4.8,1.,4.8,0.,4.8
1979-07-04 09:28:19.110 ,6,0,0.,4.8,0.,4.8,0.,4.8,0.,4.8
1979-07-04 09:28:23.910 ,6,0,0.,4.8,0.,4.8,0.,4.8,0.,4.8
1979-07-04 09:28:28.710 ,6,0,0.,4.8,0.,4.8,0.,4.8,0.,4.8
1979-07-04 09:28:33.510 ,6,0,1.,4.8,0.,4.8,1.,4.8,0.,4.8
1979-07-04 09:28:38.310 ,6,0,0.,4.8,0.,4.8,0.,4.8,0.,4.8
1979-07-04 09:28:43.110 ,6,0,1.,4.8,0.,4.8,0.,4.8,0.,4.8
1979-07-04 09:28:47.910 ,7,0,0.,4.8,0.,4.8,0.,4.8,0.,4.8
1979-07-04 09:28:52.710 ,7,0,0.,4.8,0.,4.8,0.,4.8,0.,4.8
1979-07-04 09:28:57.510 ,7,0,1.,4.8,0.,4.8,0.,4.8,0.,4.8
1979-07-04 09:29:02.310 ,7,0,1.,4.8,0.,4.8,0.,4.8,0.,4.8
1979-07-04 09:29:07.110 ,7,0,1.,4.8,0.,4.8,0.,4.8,0.,4.8
1979-07-04 09:29:11.910 ,7,0,0.,4.8,0.,4.8,0.,4.8,0.,4.8
1979-07-04 09:29:16.710 ,7,0,1.,4.8,0.,4.8,0.,4.8,0.,4.8
1979-07-04 09:29:21.510 ,7,0,0.,4.8,0.,4.8,0.,4.8,0.,4.8
1979-07-04 09:29:26.310 ,7,0,0.,4.8,0.,4.8,0.,4.8,0.,4.8
1979-07-04 09:29:31.110 ,7,0,0.,4.8,0.,4.8,0.,4.8,0.,4.8
1979-07-04 09:29:35.910 ,7,0,1.,4.8,0.,4.8,0.,4.8,0.,4.8
1979-07-04 09:29:40.710 ,7,0,0.,4.8,0.,4.8,0.,4.8,0.,4.8
1979-07-04 09:29:45.510 ,7,0,0.,4.8,0.,4.8,0.,4.8,0.,4.8
1979-07-04 09:29:50.310 ,7,0,0.,4.8,0.,4.8,0.,4.8,0.,4.8
1979-07-04 09:29:55.110 ,7,0,0.,4.8,0.,4.8,0.,4.8,0.,4.8
1979-07-04 09:29:59.910 ,7,0,1.,4.8,0.,4.8,0.,4.8,0.,4.8
1979-07-04 09:30:04.710 ,7,0,0.,4.8,0.,4.8,0.,4.8,0.,4.8
1979-07-04 09:30:09.510 ,7,0,2.,4.8,0.,4.8,0.,4.8,0.,4.8
1979-07-04 09:30:14.310 ,7,0,0.,4.8,0.,4.8,0.,4.8,0.,4.8
1979-07-04 09:30:19.110 ,7,0,1.,4.8,0.,4.8,0.,4.8,0.,4.8
1979-07-04 09:30:23.910 ,6,0,0.,4.8,0.,4.8,0.,4.8,0.,4.8
1979-07-04 09:30:28.710 ,6,0,2.,4.8,0.,4.8,0.,4.8,0.,4.8
1979-07-04 09:30:33.510 ,6,0,0.,4.8,0.,4.8,0.,4.8,0.,4.8
1979-07-04 09:30:38.310 ,6,0,2.,4.8,0.,4.8,0.,4.8,0.,4.8
1979-07-04 09:30:43.110 ,6,0,1.,4.8,0.,4.8,0.,4.8,0.,4.8
1979-07-04 09:30:47.910 ,6,0,0.,4.8,1.,4.8,0.,4.8,0.,4.8
1979-07-04 09:30:52.710 ,6,0,0.,4.8,0.,4.8,0.,4.8,0.,4.8
1979-07-04 09:30:57.510 ,6,0,1.,4.8,0.,4.8,0.,4.8,0.,4.8
1979-07-04 09:31:02.310 ,6,0,0.,4.8,0.,4.8,0.,4.8,0.,4.8
1979-07-04 09:31:07.110 ,6,0,0.,4.8,0.,4.8,0.,4.8,0.,4.8
1979-07-04 09:31:11.910 ,5,0,0.,4.8,0.,4.8,0.,4.8,0.,4.8
1979-07-04 09:31:16.710 ,5,0,0.,4.8,0.,4.8,0.,4.8,0.,4.8
1979-07-04 09:31:21.510 ,5,0,0.,4.8,0.,4.8,1.,4.8,0.,4.8
1979-07-04 09:31:26.310 ,5,0,0.,4.8,0.,4.8,0.,4.8,0.,4.8
1979-07-04 09:31:31.110 ,5,0,0.,4.8,0.,4.8,0.,4.8,1.,4.8
1979-07-04 09:31:35.910 ,5,0,0.,4.8,0.,4.8,0.,4.8,0.,4.8
1979-07-04 09:31:40.710 ,5,0,0.,4.8,0.,4.8,0.,4.8,0.,4.8
1979-07-04 09:31:45.510 ,5,0,0.,4.8,0.,4.8,0.,4.8,0.,4.8
1979-07-04 09:31:50.310 ,5,0,1.,4.8,0.,4.8,0.,4.8,0.,4.8
1979-07-04 09:31:55.110 ,5,0,0.,4.8,0.,4.8,0.,4.8,0.,4.8
1979-07-04 09:31:59.910 ,4,0,1.,4.8,0.,4.8,0.,4.8,0.,4.8
1979-07-04 09:32:04.710 ,4,0,0.,4.8,0.,4.8,0.,4.8,0.,4.8
1979-07-04 09:32:09.510 ,4,0,1.,4.8,0.,4.8,0.,4.8,0.,4.8
1979-07-04 09:32:14.310 ,4,0,0.,4.8,0.,4.8,0.,4.8,0.,4.8
1979-07-04 09:32:19.110 ,4,0,0.,4.8,0.,4.8,0.,4.8,0.,4.8
1979-07-04 09:32:23.910 ,4,0,0.,4.8,0.,4.8,0.,4.8,0.,4.8
1979-07-04 09:32:28.710 ,4,0,0.,4.8,0.,4.8,1.,4.8,0.,4.8
1979-07-04 09:32:33.510 ,4,0,1.,4.8,0.,4.8,0.,4.8,0.,4.8
1979-07-04 09:32:38.310 ,4,0,0.,4.8,0.,4.8,0.,4.8,0.,4.8
1979-07-04 09:32:43.110 ,4,0,0.,4.8,0.,4.8,0.,4.8,0.,4.8
1979-07-04 09:32:47.910 ,3,0,0.,4.8,0.,4.8,0.,4.8,0.,4.8
1979-07-04 09:32:52.710 ,3,0,1.,4.8,0.,4.8,0.,4.8,0.,4.8
1979-07-04 09:32:57.510 ,3,0,1.,4.8,0.,4.8,0.,4.8,0.,4.8
1979-07-04 09:33:02.310 ,3,0,0.,4.8,0.,4.8,0.,4.8,0.,4.8
1979-07-04 09:33:07.110 ,3,0,0.,4.8,0.,4.8,0.,4.8,0.,4.8
1979-07-04 09:33:11.910 ,3,0,0.,4.8,0.,4.8,0.,4.8,0.,4.8
1979-07-04 09:33:16.710 ,3,0,0.,4.8,0.,4.8,0.,4.8,0.,4.8